Theta_e
309 309 309 309 309 309 309 309 309 310 310 311 312 312 313 313 314 315 316 315 313 312 312 312 313 314 317 318 314 315 310 312 315 317 316 317 316 317 317 317 316 315 316 316 313
310 310 310 309 309 309 309 309 309 310 310 311 312 312 313 314 316 317 316 315 314 313 312 314 316 315 317 318 318 316 311 315 315 315 316 317 317 317 316 316 314 313 313 313 313
310 310 310 310 310 309 309 309 309 310 310 311 312 312 314 315 319 318 313 312 313 313 312 313 315 315 316 316 317 316 313 314 316 317 318 317 317 317 316 314 315 315 313 313 314
311 311 310 310 310 310 309 309 309 309 310 311 312 312 314 316 320 317 312 311 311 312 312 313 315 315 315 316 318 314 316 315 317 316 317 317 317 317 316 315 316 316 314 313 313
311 311 311 310 310 310 310 309 309 309 310 311 311 312 314 317 319 319 318 311 311 311 313 315 315 316 315 316 317 316 316 316 317 316 317 317 317 316 315 315 314 314 313 312 312
311 311 311 310 310 310 310 310 309 309 309 310 311 312 316 318 318 319 318 317 312 312 314 314 315 315 315 315 315 316 316 316 316 316 316 316 316 316 315 315 314 313 312 312 312
308 310 310 310 310 310 309 310 310 309 309 310 311 312 314 315 317 319 318 317 316 312 314 314 315 314 316 316 316 316 314 314 315 316 315 316 313 313 315 314 314 312 311 311 311
308 308 308 309 309 309 309 309 310 309 308 309 311 313 313 316 318 319 319 318 317 314 314 315 313 315 316 316 315 315 314 315 316 314 314 314 314 314 314 314 312 312 311 311 310
320 312 308 308 308 309 309 309 310 309 308 309 311 314 314 316 317 317 318 317 316 315 313 313 313 315 314 312 312 314 314 315 316 314 312 312 313 312 312 313 312 311 311 310 310
324 323 319 308 309 309 309 309 310 309 309 309 311 314 313 316 317 317 316 316 315 314 313 313 314 311 311 310 314 315 315 316 317 314 312 311 311 312 312 312 312 312 311 310 310
322 324 324 321 311 307 309 310 311 315 311 310 313 314 316 315 315 316 316 315 315 314 312 314 311 312 311 311 313 315 316 316 315 314 313 312 312 311 312 311 311 312 311 311 311
319 320 324 323 323 315 308 309 313 315 316 314 315 315 317 316 314 315 315 315 314 313 313 313 313 313 313 312 313 314 314 314 314 313 312 312 312 311 311 311 311 312 312 312 310
318 319 321 323 323 321 315 308 311 316 316 313 309 311 316 315 316 315 314 314 313 313 313 314 315 315 314 315 316 315 315 314 315 314 312 312 312 312 312 312 313 312 312 312 311
320 320 321 322 317 320 321 315 308 312 310 311 313 315 315 316 314 315 315 315 313 313 313 314 315 315 314 315 315 315 314 315 315 316 315 312 317 314 313 312 310 312 311 312 310
318 319 321 319 321 320 321 318 309 315 307 309 315 316 316 315 313 313 315 314 312 313 314 314 314 314 315 314 313 315 314 315 315 314 314 314 313 314 313 315 315 312 311 312 311
316 316 319 320 321 321 320 317 312 318 313 314 314 314 314 315 311 310 312 312 313 313 312 313 313 312 313 311 313 311 313 313 312 313 315 315 315 316 316 316 315 313 311 311 310
313 316 318 319 318 318 318 313 312 315 314 315 315 314 315 315 310 310 309 311 313 314 314 313 313 313 312 312 312 313 313 316 317 315 319 314 314 318 315 313 313 311 309 308 308
310 314 317 317 318 318 317 311 315 314 316 315 315 314 315 314 312 310 310 311 310 312 314 316 315 313 311 313 313 312 314 316 318 318 317 310 315 316 312 313 311 313 314 309 307
308 310 314 316 317 318 318 312 317 315 313 315 315 316 316 315 311 311 309 311 311 311 315 315 315 312 310 313 314 312 315 315 317 301 310 315 313 312 309 308 308 309 308 306 305
306 308 311 315 316 317 318 314 314 314 315 315 318 316 317 315 313 311 311 311 313 312 312 316 320 311 309 312 312 312 311 315 313 314 314 316 315 318 313 310 306 305 305 304 304
305 308 310 311 314 317 319 318 314 314 314 317 317 317 316 315 313 312 313 313 312 311 312 314 319 312 309 311 313 312 313 313 314 312 314 315 318 312 314 311 306 306 306 305 304
305 309 310 312 315 316 318 317 316 315 314 316 317 317 316 315 315 311 313 314 314 312 312 313 317 311 311 309 308 312 313 312 316 314 312 313 320 308 310 310 308 307 306 306 305
305 306 309 312 314 314 316 315 316 316 315 316 318 317 316 317 318 314 312 313 314 313 313 314 316 316 314 311 309 311 312 314 314 310 317 315 320 306 308 309 309 307 307 306 304
304 306 307 308 311 313 315 316 317 316 316 315 317 316 317 318 317 318 315 313 314 314 314 315 315 318 320 319 313 311 310 312 315 316 316 317 318 312 309 308 306 307 307 306 304
303 304 306 310 309 311 311 311 312 315 316 316 317 316 318 319 319 319 317 312 311 313 314 315 317 314 317 315 313 311 311 312 314 315 317 318 317 316 311 307 308 309 307 305 304
302 302 305 306 308 309 310 310 311 310 314 316 317 317 316 318 318 318 317 317 314 309 314 312 316 315 317 314 314 316 312 310 312 313 314 315 316 313 314 314 309 311 308 306 305
301 302 304 304 304 306 308 310 310 310 311 311 312 314 316 316 316 317 317 316 315 311 311 313 314 315 320 314 315 318 317 317 316 312 312 313 314 310 310 309 308 309 308 308 308
Wind_Speed
4 3 2 2 1 0 1 2 2 3 3 4 4 5 6 6 6 4 1 2 2 1 1 2 4 6 7 5 5 2 4 2 5 3 5 12 4 4 7 10 5 6 9 12 14
3 3 2 1 1 1 2 3 3 4 4 5 5 6 6 6 5 3 2 3 3 2 3 5 5 4 4 3 3 4 4 1 1 3 4 9 7 10 6 9 5 10 12 13 14
6 5 4 4 3 4 4 4 4 4 5 6 6 6 7 6 1 2 4 2 1 3 3 4 3 4 3 2 2 2 3 3 4 5 6 7 6 4 6 3 7 13 14 13 15
9 8 7 6 6 6 6 6 6 6 6 7 7 6 6 5 2 3 4 3 2 4 5 8 6 2 2 2 2 2 1 2 1 2 3 2 4 3 3 6 6 15 14 14 14
13 11 10 9 9 8 8 8 7 7 8 8 8 7 4 2 2 2 1 2 5 8 10 6 3 1 2 2 2 2 2 1 2 1 2 1 3 3 6 12 12 13 13 14 14
15 14 13 11 10 10 10 9 9 8 8 9 9 7 4 4 3 4 3 4 4 6 6 6 3 2 1 2 3 1 2 3 6 5 4 3 3 2 8 16 14 14 15 14 14
15 16 16 15 13 11 11 11 11 10 9 9 9 8 8 9 7 4 3 5 7 8 7 7 4 3 2 1 1 0 2 5 9 8 4 6 6 9 15 19 18 16 16 15 15
11 15 17 16 16 14 12 12 12 12 10 9 8 8 7 8 10 12 11 9 8 9 8 5 5 4 2 2 0 1 1 1 3 12 4 6 8 5 18 24 19 18 18 17 17
8 10 15 17 16 16 14 13 12 12 11 10 7 5 7 9 14 13 10 10 9 8 8 5 6 3 3 4 4 3 3 6 5 9 5 4 7 1 19 20 19 20 19 19 19
11 10 10 13 16 16 15 13 12 13 12 10 11 6 13 7 9 10 12 10 7 8 6 6 4 3 2 4 5 6 4 5 5 7 4 5 10 4 17 18 22 23 23 23 23
15 14 13 10 12 14 14 10 6 5 10 11 5 5 3 10 8 10 15 13 8 6 5 6 4 8 12 9 5 3 3 4 5 4 5 9 8 10 23 22 23 27 30 30 28
21 20 17 15 13 11 12 5 6 4 9 16 20 21 13 9 7 12 18 12 8 6 6 3 8 11 8 8 8 8 8 9 6 4 5 6 11 9 11 22 32 37 37 37 32
31 31 27 18 17 14 12 13 11 5 6 11 25 26 28 29 15 19 25 12 6 7 9 8 7 10 9 6 7 7 7 5 8 1 3 4 7 8 9 26 31 37 39 40 42
25 27 27 23 16 16 17 11 12 3 3 6 9 13 23 21 11 25 27 13 6 13 6 9 11 4 5 7 8 8 6 6 6 1 5 4 9 7 5 10 11 34 39 41 43
22 23 24 31 22 19 13 7 15 6 4 6 4 6 15 18 16 13 30 14 9 9 7 9 8 8 14 8 9 7 2 2 3 4 1 3 4 6 9 12 18 23 31 42 46
23 21 22 31 32 27 17 10 19 3 12 4 4 5 8 8 2 6 12 6 5 4 4 6 3 7 8 2 6 7 5 6 4 2 5 12 9 7 9 16 11 11 28 40 43
21 21 22 27 35 22 22 20 3 6 3 6 5 6 7 8 3 5 7 9 10 6 11 3 5 3 6 6 3 5 7 1 3 1 8 5 8 20 5 8 10 12 27 37 42
17 23 25 24 27 26 28 4 6 9 11 3 5 4 7 6 4 7 8 9 10 3 3 11 7 13 8 8 8 8 9 6 8 5 4 3 8 6 10 14 13 16 26 40 41
13 16 28 31 25 33 24 6 11 8 8 5 3 3 5 4 6 5 8 7 10 14 10 7 7 4 1 4 12 6 9 4 2 2 1 6 7 7 4 7 4 13 28 38 43
13 12 26 28 23 37 15 13 7 8 4 14 18 8 10 10 7 8 10 6 7 18 10 4 2 3 1 5 3 7 6 3 1 2 6 5 6 9 6 13 8 9 20 29 37
10 7 10 16 25 21 12 15 12 17 19 6 7 7 8 9 9 7 7 3 13 13 27 5 4 2 3 6 13 5 5 5 5 5 5 3 8 6 11 11 12 15 29 35 39
7 4 6 18 13 6 11 13 12 14 26 8 10 9 10 10 11 12 14 8 20 18 14 13 4 5 9 4 3 3 7 6 5 7 5 2 20 5 3 4 15 20 27 33 36
6 11 11 21 8 13 9 12 13 7 15 16 14 11 15 15 7 10 8 12 18 15 12 10 5 1 4 3 2 6 8 17 1 3 15 5 18 3 2 3 10 16 24 31 34
6 3 15 23 22 7 11 16 16 22 20 23 12 15 13 12 18 8 11 9 24 21 23 21 6 14 20 6 7 7 10 13 18 9 8 24 27 1 4 6 7 16 22 29 34
11 6 7 4 12 14 12 4 3 3 16 29 11 22 19 22 17 24 19 2 1 9 15 13 13 8 18 5 5 7 13 20 21 31 15 32 25 17 10 11 18 18 20 27 33
12 7 8 7 8 9 16 15 18 15 4 7 17 21 25 22 20 14 22 18 8 5 12 3 10 12 19 9 8 8 9 19 24 23 26 28 34 7 18 20 17 26 29 34 37
29 24 10 6 4 6 7 9 12 10 12 20 13 13 19 24 31 30 28 20 7 9 8 10 7 5 18 8 8 8 33 21 20 17 22 25 40 5 11 10 17 27 33 39 40
Wind_Direction
169 170 167 159 139 90 11 358 348 346 347 344 348 344 340 343 341 332 334 314 317 192 167 82 60 63 67 41 49 61 61 341 316 126 161 158 121 115 106 134 100 100 148 149 157
221 221 223 253 297 320 331 328 330 330 333 332 336 338 340 341 332 298 302 303 266 221 172 131 72 64 73 49 47 74 93 266 3 347 153 162 134 160 137 143 99 111 129 148 161
258 256 266 279 292 307 314 315 317 320 322 324 330 335 338 342 2 44 7 348 225 189 181 147 114 92 75 53 51 52 153 310 6 54 78 140 118 151 151 149 190 181 163 161 171
250 261 270 276 285 295 301 308 310 314 316 318 323 330 336 338 152 36 40 58 112 151 148 119 107 61 88 99 108 52 155 85 333 0 77 99 127 153 195 156 157 169 165 173 177
253 255 258 269 279 286 293 299 303 309 313 316 320 326 338 315 252 283 329 74 112 129 131 117 91 74 89 87 109 133 270 132 189 240 175 223 159 188 178 168 168 168 177 182 183
253 255 257 259 267 278 289 293 299 304 309 312 316 321 314 277 249 260 253 223 196 169 153 155 122 94 59 94 130 182 324 277 223 216 216 197 244 226 210 194 191 193 194 194 196
252 257 256 260 261 268 278 290 295 298 302 307 312 311 288 262 250 239 241 231 215 206 186 194 195 172 123 112 116 140 330 303 235 200 215 205 288 226 227 198 197 195 200 205 208
252 254 258 257 261 266 271 280 290 294 295 299 304 301 268 253 254 251 247 233 216 205 210 211 195 164 179 131 360 206 105 291 268 169 189 144 267 277 202 189 193 203 211 213 213
277 268 256 257 257 261 269 276 283 287 289 290 293 276 262 240 238 240 234 223 209 201 200 190 168 146 146 96 10 320 231 215 298 173 129 162 264 234 183 196 202 208 212 211 211
285 285 281 260 257 260 265 274 282 283 274 276 250 272 236 223 217 220 202 201 191 179 157 161 152 99 46 105 220 210 225 259 229 221 156 186 255 224 203 208 216 213 209 214 220
277 280 281 286 266 262 263 277 284 275 227 214 184 202 202 209 206 205 189 171 156 164 159 183 126 203 202 195 200 213 226 250 268 226 149 218 245 230 223 220 222 217 212 217 221
265 272 271 278 276 268 262 222 223 271 292 249 243 239 233 234 200 193 175 172 172 191 137 77 229 224 195 205 218 246 258 267 289 204 169 261 248 250 211 225 222 220 219 216 213
248 256 265 256 264 262 258 240 224 269 269 261 244 237 228 229 217 199 183 185 175 170 192 179 216 205 193 226 198 217 207 232 225 253 258 288 270 246 240 229 232 232 230 222 216
249 242 246 250 232 251 255 241 226 210 286 263 210 230 205 206 226 220 209 183 192 193 190 229 224 168 167 216 183 237 208 208 240 210 248 160 282 249 232 243 218 232 225 224 214
253 250 234 238 239 231 257 229 194 172 289 234 186 172 183 172 143 181 196 196 175 182 153 228 183 193 225 210 169 231 117 172 214 199 311 250 295 262 211 249 252 240 220 215 212
251 251 237 243 231 240 233 199 167 178 236 203 120 134 128 199 72 125 172 171 152 178 266 213 179 162 193 84 164 152 78 41 40 81 256 231 203 225 227 236 255 242 218 208 205
250 242 232 239 226 201 192 153 140 215 342 192 159 164 170 174 139 160 157 183 178 167 220 180 206 178 152 103 34 127 107 289 318 301 246 229 218 251 260 249 232 217 199 195 197
258 241 232 235 238 211 176 116 199 214 217 101 129 104 183 147 196 167 142 190 249 237 129 196 253 172 190 185 168 194 164 164 216 212 261 14 239 247 227 241 270 242 218 195 195
277 256 242 234 227 221 192 208 200 180 173 185 82 144 211 147 140 147 201 223 200 194 196 175 248 82 88 159 158 202 208 186 11 37 13 217 281 294 252 265 260 196 184 188 196
283 270 254 236 225 210 217 201 239 228 109 203 216 161 182 187 159 175 178 202 213 196 213 209 248 8 341 94 59 150 159 91 82 228 253 259 248 230 214 241 214 198 186 191 195
279 276 275 236 218 209 216 211 210 225 226 145 247 221 192 175 185 202 216 253 195 187 196 181 170 313 121 204 176 160 196 198 136 164 199 287 258 213 217 223 200 206 199 198 201
245 246 223 180 196 234 219 214 219 202 224 251 210 221 224 183 194 205 213 221 193 165 187 204 140 186 206 254 248 277 189 166 161 218 236 182 263 171 133 254 206 210 203 207 211
228 248 237 204 218 226 251 217 231 182 200 224 216 218 219 232 211 219 205 214 186 167 168 171 199 167 323 338 356 207 217 213 251 61 229 186 262 22 98 171 214 210 204 205 206
213 246 217 226 242 239 233 240 228 220 233 223 223 223 250 229 234 240 231 199 203 193 188 170 173 206 232 218 151 198 201 208 208 228 226 235 258 95 203 223 215 216 209 205 208
215 229 230 202 228 230 242 266 309 262 225 205 230 239 226 233 230 239 235 217 342 211 185 166 215 197 239 179 152 196 203 204 208 226 215 256 243 236 218 219 219 223 206 205 210
220 202 229 261 281 226 219 238 241 237 244 240 222 225 227 240 217 232 231 220 195 222 176 180 230 205 250 223 224 230 219 215 225 234 238 253 262 152 235 244 212 225 213 206 214
228 225 228 230 227 227 233 234 240 209 232 233 267 266 245 230 236 244 251 242 233 169 177 164 188 158 243 179 230 253 236 225 229 231 225 236 246 206 244 229 229 231 221 219 224